• En España
  • Lista de países
  • Para 7 días
  • Temperatura del agua
  • Mapa Satelital
  • El tiempo en el mapa
  • Informadores
  • user-avatar
    Iniciar sesión

    Tiempo cada hora Djelfa

    Hoy, 17 Octubre, Miércoles

    Tiempo Temperatura Precipitaciones Viento Presión Humedad
    00:00 +13°C° 1.3 mm 3 mps 662 mmHg 77%
    01:00 +12°C° 0.7 mm 3 mps 662 mmHg 78%
    02:00 +12°C° 0.7 mm 3 mps 662 mmHg 78%
    03:00 +13°C° 0.7 mm 2 mps 661 mmHg 79%
    04:00 +12°C° 0.3 mm 3 mps 661 mmHg 81%
    05:00 +11°C° 0.3 mm 3 mps 661 mmHg 82%
    06:00 +11°C° 0.3 mm 4 mps 661 mmHg 84%
    07:00 +12°C° 0.2 mm 4 mps 661 mmHg 82%
    08:00 +12°C° 0.2 mm 5 mps 661 mmHg 80%
    09:00 +13°C° 0.2 mm 5 mps 661 mmHg 78%
    10:00 +13°C° 0.1 mm 6 mps 661 mmHg 75%
    11:00 +14°C° 0.1 mm 6 mps 661 mmHg 71%
    12:00 +15°C° 0.1 mm 7 mps 661 mmHg 68%
    13:00 +15°C° 0 mm 7 mps 661 mmHg 66%
    14:00 +15°C° 0 mm 8 mps 660 mmHg 65%
    15:00 +16°C° 0 mm 8 mps 660 mmHg 63%
    16:00 +15°C° 0.1 mm 9 mps 660 mmHg 66%
    17:00 +13°C° 0.1 mm 9 mps 660 mmHg 69%
    18:00 +13°C° 0.1 mm 9 mps 660 mmHg 72%
    19:00 +13°C° 0.1 mm 9 mps 660 mmHg 75%
    20:00 +12°C° 0.1 mm 9 mps 660 mmHg 77%
    21:00 +12°C° 0.1 mm 9 mps 660 mmHg 79%
    22:00 +12°C° 0 mm 9 mps 660 mmHg 80%
    23:00 +11°C° 0 mm 9 mps 659 mmHg 81%

    Mañana, 18 Octubre, Jueves

    Tiempo Temperatura Precipitaciones Viento Presión Humedad
    00:00 +11°C° 0 mm 9 mps 659 mmHg 81%
    01:00 +11°C° 0 mm 9 mps 659 mmHg 82%
    02:00 +11°C° 0 mm 9 mps 658 mmHg 83%
    03:00 +10°C° 0 mm 9 mps 658 mmHg 84%
    04:00 +10°C° 0 mm 8 mps 658 mmHg 85%
    05:00 +10°C° 0 mm 8 mps 658 mmHg 86%
    06:00 +10°C° 0 mm 8 mps 658 mmHg 87%
    07:00 +11°C° 0 mm 7 mps 658 mmHg 82%
    08:00 +11°C° 0 mm 7 mps 658 mmHg 78%
    09:00 +13°C° 0 mm 6 mps 659 mmHg 74%
    10:00 +14°C° 0 mm 6 mps 659 mmHg 69%
    11:00 +16°C° 0 mm 6 mps 659 mmHg 63%
    12:00 +17°C° 0 mm 5 mps 659 mmHg 58%
    13:00 +17°C° 0 mm 5 mps 659 mmHg 56%
    14:00 +19°C° 0 mm 5 mps 658 mmHg 54%
    15:00 +19°C° 0 mm 5 mps 658 mmHg 52%
    16:00 +18°C° 0 mm 4 mps 658 mmHg 54%
    17:00 +18°C° 0 mm 4 mps 659 mmHg 57%
    18:00 +17°C° 0 mm 3 mps 659 mmHg 59%
    19:00 +17°C° 0 mm 2 mps 659 mmHg 62%
    20:00 +16°C° 0 mm 2 mps 659 mmHg 65%
    21:00 +16°C° 0 mm 1 mps 660 mmHg 68%
    22:00 +15°C° 0 mm 1 mps 660 mmHg 70%
    23:00 +14°C° 0 mm 0 mps 659 mmHg 72%

    Pasado mañana, 19 Octubre, Viernes

    Tiempo Temperatura Precipitaciones Viento Presión Humedad
    00:00 +13°C° 0 mm 0 mps 659 mmHg 74%
    01:00 +13°C° 0 mm 0 mps 659 mmHg 75%
    02:00 +13°C° 0 mm 0 mps 659 mmHg 75%
    03:00 +14°C° 0 mm 1 mps 659 mmHg 75%
    04:00 +13°C° 0 mm 1 mps 659 mmHg 75%
    05:00 +13°C° 0 mm 1 mps 660 mmHg 75%
    06:00 +13°C° 0 mm 1 mps 660 mmHg 75%
    07:00 +15°C° 0 mm 1 mps 661 mmHg 67%
    08:00 +16°C° 0 mm 1 mps 661 mmHg 59%
    09:00 +18°C° 0 mm 2 mps 662 mmHg 51%
    10:00 +19°C° 0 mm 2 mps 663 mmHg 47%
    11:00 +20°C° 0 mm 3 mps 663 mmHg 43%
    12:00 +21°C° 0 mm 3 mps 663 mmHg 39%
    13:00 +21°C° 0 mm 3 mps 663 mmHg 38%
    14:00 +22°C° 0 mm 4 mps 663 mmHg 36%
    15:00 +22°C° 0 mm 4 mps 663 mmHg 35%
    16:00 +21°C° 0 mm 4 mps 663 mmHg 39%
    17:00 +20°C° 0 mm 4 mps 663 mmHg 42%
    18:00 +19°C° 0 mm 4 mps 663 mmHg 46%
    19:00 +19°C° 0 mm 4 mps 664 mmHg 49%
    20:00 +17°C° 0 mm 5 mps 664 mmHg 52%
    21:00 +17°C° 0 mm 5 mps 664 mmHg 55%
    22:00 +16°C° 0 mm 5 mps 664 mmHg 57%
    23:00 +16°C° 0 mm 5 mps 664 mmHg 59%

    20 Octubre, Sábado

    Tiempo Temperatura Precipitaciones Viento Presión Humedad
    00:00 +15°C° 0 mm 4 mps 664 mmHg 60%
    01:00 +15°C° 0 mm 5 mps 664 mmHg 62%
    02:00 +15°C° 0 mm 5 mps 664 mmHg 63%
    03:00 +14°C° 0 mm 5 mps 663 mmHg 65%
    04:00 +14°C° 0 mm 5 mps 664 mmHg 66%
    05:00 +14°C° 0 mm 5 mps 664 mmHg 67%
    06:00 +14°C° 0 mm 5 mps 664 mmHg 68%
    07:00 +15°C° 0 mm 6 mps 665 mmHg 64%
    08:00 +16°C° 0 mm 7 mps 665 mmHg 59%
    09:00 +17°C° 0 mm 8 mps 666 mmHg 55%
    10:00 +18°C° 0 mm 8 mps 666 mmHg 52%
    11:00 +19°C° 0 mm 9 mps 666 mmHg 49%
    12:00 +21°C° 0 mm 9 mps 666 mmHg 46%
    13:00 +21°C° 0 mm 9 mps 665 mmHg 46%
    14:00 +21°C° 0 mm 9 mps 665 mmHg 46%
    15:00 +21°C° 0 mm 9 mps 665 mmHg 46%
    16:00 +20°C° 0 mm 8 mps 665 mmHg 51%
    17:00 +20°C° 0 mm 7 mps 665 mmHg 55%
    18:00 +19°C° 0 mm 6 mps 665 mmHg 60%
    19:00 +17°C° 0 mm 6 mps 665 mmHg 63%
    20:00 +17°C° 0 mm 6 mps 665 mmHg 66%
    21:00 +16°C° 0 mm 6 mps 665 mmHg 69%
    22:00 +16°C° 0 mm 6 mps 665 mmHg 72%
    23:00 +16°C° 0 mm 6 mps 665 mmHg 74%

    21 Octubre, Domingo

    Tiempo Temperatura Precipitaciones Viento Presión Humedad
    00:00 +15°C° 0 mm 5 mps 665 mmHg 76%
    01:00 +15°C° 0 mm 5 mps 665 mmHg 78%
    02:00 +15°C° 0 mm 5 mps 664 mmHg 79%
    03:00 +15°C° 0 mm 5 mps 664 mmHg 80%
    04:00 +14°C° 0 mm 5 mps 664 mmHg 83%
    05:00 +14°C° 0 mm 4 mps 664 mmHg 85%
    06:00 +14°C° 0 mm 4 mps 664 mmHg 88%
    07:00 +15°C° 0 mm 4 mps 665 mmHg 83%
    08:00 +17°C° 0 mm 4 mps 665 mmHg 78%
    09:00 +18°C° 0 mm 4 mps 666 mmHg 74%
    10:00 +19°C° 0 mm 4 mps 666 mmHg 67%
    11:00 +20°C° 0 mm 3 mps 666 mmHg 59%
    12:00 +20°C° 0 mm 2 mps 666 mmHg 52%
    13:00 +21°C° 0 mm 2 mps 666 mmHg 47%
    14:00 +21°C° 0 mm 2 mps 666 mmHg 43%
    15:00 +23°C° 0 mm 1 mps 665 mmHg 38%
    16:00 +22°C° 0 mm 1 mps 665 mmHg 39%
    17:00 +21°C° 0 mm 2 mps 665 mmHg 41%
    18:00 +20°C° 0 mm 2 mps 666 mmHg 42%
    19:00 +20°C° 0 mm 2 mps 666 mmHg 47%
    20:00 +20°C° 0 mm 1 mps 666 mmHg 51%
    21:00 +19°C° 0 mm 1 mps 666 mmHg 56%
    22:00 +19°C° 0 mm 1 mps 666 mmHg 59%
    23:00 +18°C° 0 mm 1 mps 665 mmHg 62%

    22 Octubre, Lunes

    Tiempo Temperatura Precipitaciones Viento Presión Humedad
    00:00 +18°C° 0 mm 1 mps 665 mmHg 64%
    01:00 +16°C° 0 mm 1 mps 665 mmHg 66%
    02:00 +16°C° 0 mm 1 mps 665 mmHg 67%
    03:00 +15°C° 0 mm 1 mps 665 mmHg 68%
    04:00 +15°C° 0 mm 1 mps 665 mmHg 69%
    05:00 +15°C° 0 mm 1 mps 665 mmHg 71%
    06:00 +15°C° 0 mm 1 mps 665 mmHg 72%
    07:00 +16°C° 0 mm 1 mps 665 mmHg 66%
    08:00 +18°C° 0 mm 1 mps 666 mmHg 60%
    09:00 +18°C° 0 mm 2 mps 667 mmHg 54%
    10:00 +19°C° 0 mm 2 mps 667 mmHg 49%
    11:00 +20°C° 0 mm 2 mps 667 mmHg 44%
    12:00 +21°C° 0 mm 3 mps 667 mmHg 39%
    13:00 +21°C° 0 mm 3 mps 666 mmHg 38%
    14:00 +22°C° 0 mm 3 mps 666 mmHg 36%
    15:00 +22°C° 0 mm 4 mps 666 mmHg 35%
    16:00 +21°C° 0 mm 4 mps 666 mmHg 38%
    17:00 +20°C° 0 mm 4 mps 666 mmHg 41%
    18:00 +19°C° 0 mm 3 mps 666 mmHg 44%
    19:00 +19°C° 0 mm 3 mps 667 mmHg 48%
    20:00 +18°C° 0 mm 3 mps 667 mmHg 52%
    21:00 +17°C° 0 mm 3 mps 667 mmHg 56%
    22:00 +17°C° 0 mm 3 mps 667 mmHg 60%
    23:00 +16°C° 0 mm 2 mps 667 mmHg 64%
    Mostrar más